Location: Unspecified
(17.6330°N, 0.0000°E)
Time: 18:36:16
(UTC+00:00)

S-56A Canister/Altair - Pass Details

Date: 03 July 2019
Orbit: 632 x 2500 km, 38.9° (Epoch: 18 July)

Event Time Altitude Azimuth Distance (km) Brightness Sun altitude
Rises 20:00:24 0° 297° (WNW) 3,923 12.9 -17.9°
Reaches altitude 10° 20:03:44 10° 289° (WNW) 2,688 11.5 -18.6°
Maximum altitude 20:09:11 35° 225° (SW) 1,227 8.6 -19.7°
Enters shadow 20:11:20 24° 180° (S) 1,452 8.6 -20.1°
Drops below altitude 10° 20:13:27 10° 159° (SSE) 2,085 - -20.5°
Sets 20:15:44 0° 149° (SSE) 2,929 - -21.0°
